Preview of NWS' New Version of Forecast
This preview is not operational and should not be used for support decisions.

Regional Weather Roundup (RWR)

Issued by National Weather Service (NWS)

                            
000
ASUS43 KLSX 181457
RWRMO 

WEATHER SUMMARY FOR MISSOURI
NATIONAL WEATHER SERVICE SPRINGFIELD MO
1000 AM CDT WED SEP 18 2019

NOTE: "FAIR" INDICATES FEW OR NO CLOUDS BELOW 12,000 FEET WITH NO
       SIGNIFICANT WEATHER AND/OR OBSTRUCTIONS TO VISIBILITY.
       CURRENT SKY AND/OR WEATHER CONDITIONS ARE NOT AVAILABLE FOR
       CHILLICOTHE AND FARMINGTON.

MOZ001>031-035>038-043-044-053-054-181600-
...NORTHERN AND WESTERN MISSOURI...
  
CITY           SKY/WX    TMP DP  RH WIND       PRES   REMARKS
KANSAS CTY INT MOSUNNY   80  71  74 S9        29.99R                  
LEE'S SUMMIT   SUNNY     81  68  64 SW12      30.00R                  
ST JOSEPH      SUNNY     81  68  64 S7        29.97R                  
CHILLICOTHE      N/A     80  70  71 S7        30.01R                  
     
$$
MOZ066>068-077>081-088>096-101>105-181600-
...SOUTHWEST MISSOURI...
  
CITY           SKY/WX    TMP DP  RH WIND       PRES   REMARKS
SPRINGFIELD    SUNNY     83  66  56 S12       30.05S                  
JOPLIN         SUNNY     84  68  58 S9        30.03R                  
BRANSON        SUNNY     82  66  57 SE6       30.08R                  
               
$$
MOZ032>034-039>042-045>050-055>058-069>072-181600-
...CENTRAL MISSOURI...  
  
CITY           SKY/WX    TMP DP  RH WIND       PRES   REMARKS
COLUMBIA       NOT AVBL                                               
JEFFERSON CITY SUNNY     80  69  69 SE3       30.03S                  
ROLLA          SUNNY     82  68  62 S9        30.07R                  
SEDALIA        SUNNY     80  70  71 S8        30.03S                  
WARRENSBURG    SUNNY     79  68  69 S9        30.01R                  
               
$$
MOZ051-052-059>065-181600-
...EAST CENTRAL MISSOURI...
  
CITY           SKY/WX    TMP DP  RH WIND       PRES   REMARKS
ST LOUIS INTL  MOSUNNY   79  64  60 SE9       30.07R                  
                   
$$
MOZ072>076-082>087-097>100-106>115-181600-
...SOUTH CENTRAL AND SOUTHEAST MISSOURI...
  
CITY           SKY/WX    TMP DP  RH WIND       PRES   REMARKS
CAPE GIRARDEAU FAIR      81  65  58 E5        30.04S                  
POPLAR BLUFF   FAIR      80  68  66 N5        30.04R                  
WEST PLAINS    SUNNY     81  70  69 VRB3      30.09R                  
                                       
$$